This demonstration page uses our WeatherBlox Daily Observations layout. Learn more.

Left ArrowRight Arrow

38.20091, -84.87328

Hourly Observations for July 10, 2020

Temp ( °F °C ) Dew Point ( °F °C ) Humidity (%) Winds ( mph kmh ) Pressure ( in mb ) Visibility ( mi km ) Precip ( " mm )
12:53 am 00:53 Clear 73 22.8 71 21.7 94 94 Calm 29.86 1011 10 16 0.00 0.00
1:53 am 01:53 Clear 73 22.8 70 21.1 90 90 Calm 29.87 1012 10 16 0.00 0.00
2:53 am 02:53 Clear 73 22.8 70 21.1 90 90 Calm 29.86 1011 9 14 0.00 0.00
3:53 am 03:53 Clear 72 22.2 70 21.1 94 94 Calm 29.86 1011 9 14 0.00 0.00
4:53 am 04:53 Clear 73 22.8 70 21.1 90 90 Calm 29.85 1011 10 16 0.00 0.00
5:53 am 05:53 Clear 72 22.2 70 21.1 94 94 S 5 7 29.85 1011 9 14 0.00 0.00
6:53 am 06:53 Sunny 74 23.3 71 21.7 91 91 SSW 5 7 29.86 1011 10 16 0.00 0.00
7:53 am 07:53 Sunny 77 25 73 22.8 88 88 SW 6 9 29.87 1011 10 16 0.00 0.00
8:53 am 08:53 Sunny 81 27.2 74 23.3 79 79 SW 8 13 29.86 1011 10 16 0.00 0.00
9:53 am 09:53 Sunny 85 29.4 75 23.9 72 72 SW 10 17 29.86 1011 10 16 0.00 0.00
10:53 am 10:53 Mostly Cloudy 85 29.4 73 22.8 68 68 W 13 20 29.86 1011 10 16 0.00 0.00
11:53 am 11:53 Mostly Sunny 88 31.1 73 22.8 61 61 SW 15 24 29.83 1010 10 16 0.00 0.00
12:53 pm 12:53 Mostly Sunny 89 31.7 73 22.8 59 59 WSW 12 19 29.82 1010 10 16 0.00 0.00
1:53 pm 13:53 Mostly Sunny 89 31.7 73 22.8 59 59 SW 13 20 29.80 1009 10 16 0.00 0.00
2:53 pm 14:53 Partly Cloudy 88 31.1 71 21.7 57 57 W 15 24 29.81 1009 10 16 0.00 0.00
3:53 pm 15:53 Partly Cloudy 87 30.6 68 20 53 53 W 13 20 29.83 1010 10 16 0.00 0.00
4:53 pm 16:53 Sunny 86 30 66 18.9 51 51 WNW 14 22 29.84 1011 10 16 0.00 0.00
5:53 pm 17:53 Mostly Cloudy 85 29.4 66 18.9 53 53 W 13 20 29.85 1011 10 16 0.00 0.00
6:53 pm 18:53 Partly Cloudy 85 29.4 67 19.4 55 55 WNW 8 13 29.85 1011 10 16 0.00 0.00
7:53 pm 19:53 Sunny 84 28.9 64 17.8 51 51 WNW 8 13 29.85 1011 10 16 0.00 0.00
8:53 pm 20:53 Sunny 81 27.2 65 18.3 58 58 W 6 9 29.86 1011 10 16 0.00 0.00
9:53 pm 21:53 Clear 78 25.6 65 18.3 64 64 W 5 7 29.87 1011 10 16 0.00 0.00
10:53 pm 22:53 Clear 76 24.4 65 18.3 69 69 Calm 29.87 1011 10 16 0.00 0.00
11:53 pm 23:53 Clear 73 22.8 65 18.3 76 76 WSW 3 6 29.87 1012 10 16 0.00 0.00

Powered by AerisWeather